Hickory, NC

8:56 AM EST on January 18, 2018 (GMT -0500)
Hickory Regional

Weather History for KHKY - January, 2015

Change the Weather History Date:

Friday, January 30, 2015

  Actual Average Record
Temperature  
Mean Temperature 37 °F -  
Max Temperature 44 °F 51 °F 77 °F (2002)
Min Temperature 30 °F 30 °F 2 °F (1966)
Degree Days  
Heating Degree Days 28    
Moisture  
Dew Point 17 °F    
Average Humidity 41    
Maximum Humidity 59    
Minimum Humidity 27    
Precipitation  
Precipitation 0.00 in - - ()
Sea Level Pressure  
Sea Level Pressure 30.13 in    
Wind  
Wind Speed 9 mph (NW)    
Max Wind Speed 20 mph    
Max Gust Speed 37 mph    
Visibility 10 miles    
Events      
Averages and records for this station are not official NWS values.
T = Trace of Precipitation, MM = Missing Value Source: NWS Daily Summary

Daily Weather History Graph

Daily Weather History Graph

Search for Another Location

Airport or City:

Trip Planner

Search our weather history database for the weather conditions in past years. The results will help you decide how hot, cold, wet, or windy it might be!

Date:

Astronomy

Jan. 30, 2015 Rise Set
Actual Time 7:27 AM EST 5:50 PM EST
Civil Twilight 7:00 AM EST 6:17 PM EST
Nautical Twilight 6:29 AM EST 6:48 PM EST
Astronomical Twilight 5:59 AM EST 7:18 PM EST
Moon 2:26 PM EST (1/30) 3:54 AM EST (1/30)
Length of Visible Light 11h 17m
Length of Day
10h 23m
Waxing Gibbous, 84% of the Moon is Illuminated
Jan 30
Waxing Gibbous
Feb 3
Full
Feb 11
Last Quarter
Feb 18
New
Feb 25
First Quarter

Hourly Weather History & Observations

Time (EST) Temp. Windchill Dew Point Humidity Pressure Visibility Wind Dir Wind Speed Gust Speed Precip Events Conditions
12:53 AM 43.0 °F 39.5 °F 25.0 °F 49% 29.96 in 10.0 mi North 5.8 mph - N/A   Overcast
1:53 AM 42.1 °F 40.2 °F 27.0 °F 55% 29.98 in 10.0 mi West 3.5 mph - N/A   Overcast
2:53 AM 44.1 °F 40.1 °F 30.0 °F 58% 29.98 in 10.0 mi West 6.9 mph - N/A   Overcast
3:53 AM 43.0 °F 36.0 °F 28.0 °F 56% 29.99 in 10.0 mi NW 13.8 mph 24.2 mph N/A   Mostly Cloudy
4:53 AM 41.0 °F 33.5 °F 26.1 °F 55% 30.01 in 10.0 mi WNW 13.8 mph 23.0 mph N/A   Mostly Cloudy
5:53 AM 39.0 °F 33.4 °F 25.0 °F 57% 30.04 in 10.0 mi NW 8.1 mph - N/A   Overcast
6:53 AM 37.0 °F 30.4 °F 24.1 °F 59% 30.07 in 10.0 mi NW 9.2 mph - N/A   Scattered Clouds
7:53 AM 37.0 °F 31.0 °F 21.0 °F 52% 30.09 in 10.0 mi NNW 8.1 mph 19.6 mph N/A   Mostly Cloudy
8:53 AM 39.0 °F 31.8 °F 21.0 °F 49% 30.12 in 10.0 mi NNW 11.5 mph 23.0 mph N/A   Overcast
9:53 AM 39.0 °F 29.9 °F 19.9 °F 46% 30.14 in 10.0 mi NW 17.3 mph 36.8 mph N/A   Mostly Cloudy
10:53 AM 41.0 °F 31.9 °F 18.0 °F 40% 30.14 in 10.0 mi NW 19.6 mph 26.5 mph N/A   Clear
11:53 AM 42.1 °F 34.2 °F 14.0 °F 32% 30.15 in 10.0 mi NNW 16.1 mph 29.9 mph N/A   Clear
12:53 PM 44.1 °F 36.2 °F 17.1 °F 34% 30.14 in 10.0 mi NW 18.4 mph 27.6 mph N/A   Partly Cloudy
1:53 PM 44.1 °F 37.4 °F 16.0 °F 32% 30.14 in 10.0 mi NW 13.8 mph 26.5 mph N/A   Clear
2:53 PM 44.1 °F 37.4 °F 14.0 °F 30% 30.14 in 10.0 mi WNW 13.8 mph 21.9 mph N/A   Clear
3:53 PM 44.1 °F 38.6 °F 12.9 °F 28% 30.16 in 10.0 mi NW 10.4 mph 16.1 mph N/A   Clear
4:53 PM 42.1 °F 37.7 °F 10.0 °F 27% 30.18 in 10.0 mi NW 6.9 mph - N/A   Clear
5:53 PM 39.0 °F 34.0 °F 9.0 °F 29% 30.20 in 10.0 mi NNW 6.9 mph - N/A   Clear
6:53 PM 37.9 °F 30.9 °F 9.0 °F 30% 30.22 in 10.0 mi NW 10.4 mph - N/A   Clear
7:53 PM 37.0 °F 30.4 °F 8.1 °F 30% 30.24 in 10.0 mi NNW 9.2 mph - N/A   Clear
8:53 PM 35.1 °F 32.2 °F 7.0 °F 31% 30.26 in 10.0 mi NNW 3.5 mph - N/A   Clear
9:53 PM 32.0 °F 28.7 °F 7.0 °F 35% 30.27 in 10.0 mi SW 3.5 mph - N/A   Clear
10:53 PM 30.0 °F - 7.0 °F 38% 30.28 in 10.0 mi Calm Calm - N/A   Clear
11:53 PM 30.9 °F - 6.1 °F 35% 30.27 in 10.0 mi Calm Calm - N/A   Clear